This demonstration page uses our WeatherBlox Daily Observations layout. Learn more.

Left ArrowRight Arrow

39.01783, -85.05884

Hourly Observations for October 6, 2016

Temp ( °F °C ) Dew Point ( °F °C ) Humidity (%) Winds ( mph kmh ) Pressure ( in mb ) Visibility ( mi km ) Precip ( " mm )
12:52 am 00:52 Mostly Clear 67 19.4 58 14.4 73 73 S 3 6 30.12 1020 10 16 0.00 0.00
1:52 am 01:52 Clear 66 18.9 57 13.9 73 73 S 5 7 30.12 1020 10 16 0.00 0.00
2:52 am 02:52 Clear 66 18.9 57 13.9 73 73 S 3 6 30.13 1020 10 16 0.00 0.00
3:52 am 03:52 Clear 65 18.3 56 13.3 73 73 SSE 3 6 30.12 1020 10 16 0.00 0.00
4:52 am 04:52 Clear 64 17.8 56 13.3 75 75 SE 5 7 30.11 1020 10 16 0.00 0.00
5:52 am 05:52 Mostly Clear 63 17.2 57 13.9 81 81 SSE 6 9 30.13 1020 10 16 0.00 0.00
6:52 am 06:52 Mostly Clear 62 16.7 57 13.9 84 84 ESE 5 7 30.14 1021 10 16 0.00 0.00
7:52 am 07:52 Cloudy 63 17.2 58 14.4 84 84 SE 5 7 30.15 1021 10 16 0.00 0.00
8:52 am 08:52 Mostly Sunny 65 18.3 58 14.4 78 78 SE 6 9 30.16 1021 10 16 0.00 0.00
9:52 am 09:52 Mostly Cloudy 69 20.6 59 15 70 70 SE 5 7 30.17 1022 10 16 0.00 0.00
10:52 am 10:52 Mostly Cloudy 73 22.8 60 15.6 64 64 SSE 6 9 30.18 1022 10 16 0.00 0.00
11:52 am 11:52 Mostly Sunny 75 23.9 61 16.1 62 62 ESE 6 9 30.17 1022 10 16 0.00 0.00
12:52 pm 12:52 Sunny 80 26.7 60 15.6 51 51 E 5 7 30.17 1022 10 16 0.00 0.00
1:52 pm 13:52 Sunny 81 27.2 59 15 47 47 ESE 7 11 30.15 1021 10 16 0.00 0.00
2:52 pm 14:52 Mostly Sunny 82 27.8 59 15 46 46 SE 8 13 30.13 1020 10 16 0.00 0.00
3:52 pm 15:52 Mostly Sunny 82 27.8 60 15.6 47 47 SE 7 11 30.13 1020 10 16 0.00 0.00
4:52 pm 16:52 Partly Cloudy 82 27.8 60 15.6 47 47 SSE 5 7 30.12 1020 10 16 0.00 0.00
5:52 pm 17:52 Sunny 81 27.2 59 15 47 47 ESE 7 11 30.11 1020 10 16 0.00 0.00
6:52 pm 18:52 Sunny 78 25.6 59 15 52 52 E 5 7 30.11 1020 10 16 0.00 0.00
7:52 pm 19:52 Clear 72 22.2 61 16.1 68 68 E 7 11 30.11 1020 10 16 0.00 0.00
8:52 pm 20:52 Clear 73 22.8 60 15.6 64 64 ESE 7 11 30.11 1020 10 16 0.00 0.00
9:52 pm 21:52 Clear 71 21.7 59 15 66 66 ESE 7 11 30.11 1020 10 16 0.00 0.00
10:52 pm 22:52 Clear 70 21.1 58 14.4 66 66 ESE 8 13 30.10 1019 10 16 0.00 0.00
11:52 pm 23:52 Clear 67 19.4 57 13.9 71 71 SE 8 13 30.09 1019 10 16 0.00 0.00

Powered by AerisWeather